[[{"header":{"parameterUnit":"m.s-1","parameterCategory":1,"la1":30.2991,"la2":30.254,"lo1":-89.0895,"lo2":-89.0444,"dy":0.0017,"dx":0.0017,"nx":28,"ny":28,"refTime":"2023-07-28T03:00:00:Z","depth":0,"parameterNumber":2,"parameterNumberName":"U-component_of_WINDS"},"data":[0,0,0,0,0,0,0,0,0,0,0,0,0,0,0,0,0,0,0,0,0,0,0,0,0,0,0,0,0,0,0,0,0,0,0,0,0,0,0,0,0,0,0,0,0,0,0,0,0,0,0,0,0,0,0,0,0,0,-0.1179,-0.1179,0,-0.1096,-0.1095,-0.1094,-0.1058,-0.1058,-0.1058,-0.1058,-0.0971,-0.0969,-0.0967,0,0,0,0,0,0,0,0,0,0,0,0,0,-0.1307,-0.1305,-0.118,-0.1179,-0.1177,-0.1096,-0.1095,-0.1094,-0.1058,-0.1058,-0.1058,-0.1058,-0.0972,-0.0969,-0.0966,0,0,0,0,0,0,0,0,0,0,0,0,0,-0.1241,-0.1304,-0.118,-0.115,-0.1146,-0.1096,-0.1095,-0.1094,-0.1058,-0.1058,-0.1058,-0.1058,-0.0973,-0.097,-0.0966,-0.0939,0,0,-0.0955,-0.0953,0,0,0,0,0,0,0,0,-0.1244,-0.1236,-0.1155,-0.1152,-0.1148,-0.1088,-0.1108,-0.1042,-0.1058,-0.1091,-0.1058,-0.1058,-0.101,-0.1003,-0.0987,-0.0935,-0.0932,-0.0955,-0.0952,-0.0951,-0.095,0,0,0,0,0,0,0,-0.1249,-0.1239,-0.1146,-0.1154,-0.1149,-0.114,-0.1131,-0.1095,-0.105,-0.1088,-0.1086,-0.1076,-0.1008,-0.0991,-0.0985,-0.093,-0.0955,-0.0951,-0.0949,-0.0948,-0.0853,-0.0853,0,0,0,0,0,0,-0.1259,-0.1243,-0.1149,-0.1144,-0.1198,-0.1138,-0.1127,-0.1107,-0.1051,-0.1042,-0.1076,-0.1075,-0.0997,-0.0989,-0.0982,-0.0947,-0.0951,-0.0947,-0.0945,-0.0853,-0.0853,-0.0853,0,0,0,0,0,0,-0.1262,-0.1251,-0.1152,-0.1193,-0.118,-0.1135,-0.1112,-0.1105,-0.1088,-0.1041,-0.1033,-0.1067,-0.0997,-0.0987,-0.095,-0.0943,-0.0946,-0.0942,-0.0854,-0.0853,-0.0853,-0.0877,0,0,0,0,0,0,-0.1265,-0.1252,-0.1241,-0.1193,-0.1178,-0.1123,-0.1112,-0.1103,-0.1082,-0.1079,-0.1031,-0.1023,-0.0996,-0.0956,-0.0947,-0.0938,-0.094,-0.0854,-0.0853,-0.0853,-0.0877,-0.0878,-0.0878,0,0,0,0,0,-0.127,-0.1251,-0.1241,-0.123,-0.1164,-0.1123,-0.1114,-0.1084,-0.1081,-0.107,-0.1041,-0.1024,-0.0946,-0.0953,-0.0942,-0.0932,-0.0854,-0.0854,-0.0853,-0.0876,-0.0877,-0.0878,0,0,0,0,0,0,-0.13,-0.1244,-0.1232,-0.1197,-0.1165,-0.1117,-0.1102,-0.1086,-0.1053,-0.1052,-0.1016,-0.1005,-0.0972,-0.0948,-0.0957,-0.0904,-0.0899,-0.0896,-0.092,-0.0921,-0.0921,-0.0928,-0.0937,0,0,0,0,0,-0.1302,-0.1274,-0.1227,-0.12,-0.1185,-0.1146,-0.1127,-0.1107,-0.1072,-0.1058,-0.1026,-0.0992,-0.0959,-0.0939,-0.0906,-0.0873,-0.0862,-0.0861,-0.0862,-0.0863,-0.0861,-0.0842,-0.0841,-0.085,-0.085,-0.085,0,0,-0.1307,-0.1273,-0.1257,-0.1206,-0.1178,-0.1149,-0.1135,-0.1105,-0.1083,-0.1053,-0.1017,-0.0992,-0.0952,-0.0917,-0.09,-0.0897,-0.0856,-0.0862,-0.0863,-0.086,-0.0841,-0.084,-0.0839,-0.085,-0.085,-0.085,0,0,-0.1301,-0.1272,-0.1247,-0.122,-0.1179,-0.1154,-0.1148,-0.1102,-0.1085,-0.1048,-0.1025,-0.0998,-0.0943,-0.0916,-0.0895,-0.0879,-0.0863,-0.0869,-0.0873,-0.0855,-0.0854,-0.0853,-0.0848,-0.0846,-0.0867,-0.0868,-0.0868,0,-0.1312,-0.1267,-0.1236,-0.1208,-0.1186,-0.1158,-0.1132,-0.1108,-0.1058,-0.1043,-0.104,-0.0971,-0.0942,-0.09,-0.0897,-0.088,-0.0873,-0.0875,-0.0857,-0.0856,-0.0854,-0.0849,-0.0847,-0.0869,-0.0868,-0.0868,-0.0868,0,-0.1283,-0.1253,-0.1237,-0.1191,-0.1167,-0.114,-0.1105,-0.1085,-0.1067,-0.1042,-0.1005,-0.0969,-0.0929,-0.0918,-0.09,-0.0874,-0.0873,-0.0864,-0.0858,-0.0855,-0.0849,-0.0847,-0.087,-0.087,-0.0869,-0.0869,0,0,-0.1292,-0.1229,-0.1224,-0.1203,-0.1156,-0.1132,-0.1104,-0.1065,-0.1048,-0.1015,-0.0991,-0.0945,-0.0937,-0.0913,-0.0891,-0.0876,-0.0865,-0.0868,-0.0866,-0.0869,-0.0835,-0.0842,-0.084,-0.0855,-0.0854,-0.0854,-0.0838,0,-0.1279,-0.1228,-0.12,-0.116,-0.1132,-0.1106,-0.1081,-0.105,-0.1026,-0.0998,-0.0971,-0.094,-0.0931,-0.0916,-0.0899,-0.087,-0.0858,-0.0871,-0.0831,-0.083,-0.0842,-0.0837,-0.0844,-0.0831,-0.0836,-0.0835,-0.0835,0,-0.1257,-0.1225,-0.1183,-0.114,-0.1127,-0.1105,-0.1068,-0.1042,-0.1006,-0.099,-0.0963,-0.0943,-0.0912,-0.0909,-0.0866,-0.0876,-0.0858,-0.0841,-0.084,-0.0834,-0.0832,-0.0831,-0.0826,-0.0824,-0.0831,-0.0831,-0.0831,0,-0.1268,-0.1215,-0.1182,-0.1165,-0.1114,-0.1099,-0.1077,-0.1041,-0.102,-0.0987,-0.0973,-0.0937,-0.0918,-0.089,-0.086,-0.0861,-0.0821,-0.0815,-0.0806,-0.0807,-0.0798,-0.0799,-0.079,-0.0787,-0.0787,-0.0787,-0.0787,0,-0.1257,-0.1232,-0.1187,-0.1167,-0.1138,-0.1106,-0.1079,-0.1055,-0.1023,-0.0998,-0.0973,-0.095,-0.0912,-0.0884,-0.0861,-0.0829,-0.082,-0.0806,-0.08,-0.0808,-0.081,-0.0795,-0.0795,-0.0787,-0.0787,-0.0787,-0.0787,0,-0.1264,-0.1233,-0.1196,-0.1151,-0.1139,-0.112,-0.1081,-0.106,-0.1036,-0.1004,-0.0995,-0.0956,-0.0922,-0.089,-0.0844,-0.0828,-0.0796,-0.0788,-0.0809,-0.0805,-0.0798,-0.0799,-0.0779,-0.0774,-0.0775,-0.0775,-0.0775,0,-0.1258,-0.1239,-0.1192,-0.1173,-0.1152,-0.1123,-0.1101,-0.1069,-0.1048,-0.1005,-0.099,-0.0955,-0.0924,-0.0872,-0.0839,-0.0804,-0.0795,-0.079,-0.0789,-0.0798,-0.0795,-0.0796,-0.0794,-0.0791,-0.0791,-0.0791,-0.0791,0,-0.1252,-0.1238,-0.1208,-0.1173,-0.1148,-0.1119,-0.1088,-0.1075,-0.1037,-0.1014,-0.098,-0.0956,-0.091,-0.0875,-0.0837,-0.0813,-0.0796,-0.0792,-0.0788,-0.0796,-0.0808,-0.0801,-0.081,-0.0792,-0.0792,-0.0792,-0.0792,-0.0792,-0.1252,-0.1234,-0.1198,-0.1166,-0.114,-0.1112,-0.1091,-0.1064,-0.1035,-0.0995,-0.0978,-0.0943,-0.0907,-0.0854,-0.0831,-0.0803,-0.0799,-0.0793,-0.0792,-0.0791,-0.0793,-0.0813,-0.0796,-0.0796,-0.0796,-0.0796,-0.0796,0,-0.1245,-0.122,-0.1191,-0.115,-0.1125,-0.1111,-0.1077,-0.1057,-0.1027,-0.0995,-0.0966,-0.0927,-0.0893,-0.0858,-0.0822,-0.0806,-0.0797,-0.0798,-0.0798,-0.0793,-0.0798,-0.0805,-0.0806,-0.0806,-0.0806,-0.0806,-0.0806,-0.0806,-0.1237,-0.1206,-0.1187,-0.1142,-0.1118,-0.1084,-0.1066,-0.104,-0.1015,-0.0972,-0.0944,-0.0922,-0.0889,-0.0851,-0.0819,-0.0809,-0.0797,-0.08,-0.0788,-0.0794,-0.0793,-0.0793,-0.0799,-0.0798,-0.0798,-0.0786,-0.0786,-0.0785]},{"header":{"parameterUnit":"m.s-1","parameterCategory":1,"la1":30.2991,"la2":30.254,"lo1":-89.0895,"lo2":-89.0444,"dy":0.0017,"dx":0.0017,"nx":28,"ny":28,"refTime":"2023-07-28T03:00:00:Z","depth":0,"parameterNumber":3,"parameterNumberName":"V-component_of_WINDS"},"data":[0,0,0,0,0,0,0,0,0,0,0,0,0,0,0,0,0,0,0,0,0,0,0,0,0,0,0,0,0,0,0,0,0,0,0,0,0,0,0,0,0,0,0,0,0,0,0,0,0,0,0,0,0,0,0,0,0,0,0.799,0.7989,0,0.7916,0.7915,0.7914,0.788,0.7881,0.7881,0.7881,0.7802,0.7799,0.7797,0,0,0,0,0,0,0,0,0,0,0,0,0,0.8098,0.8096,0.799,0.7989,0.7988,0.7916,0.7915,0.7914,0.788,0.7881,0.7881,0.7881,0.7802,0.78,0.7797,0,0,0,0,0,0,0,0,0,0,0,0,0,0.804,0.8096,0.799,0.7963,0.7959,0.7916,0.7915,0.7914,0.788,0.7881,0.7881,0.7881,0.7803,0.78,0.7797,0.7774,0,0,0.7787,0.7785,0,0,0,0,0,0,0,0,0.8044,0.8036,0.7967,0.7964,0.7961,0.7908,0.7924,0.7867,0.788,0.791,0.7881,0.7881,0.7836,0.783,0.7816,0.777,0.7767,0.7786,0.7784,0.7783,0.7782,0,0,0,0,0,0,0,0.8048,0.8039,0.796,0.7967,0.7962,0.7953,0.7945,0.7913,0.7873,0.7908,0.7905,0.7897,0.7835,0.782,0.7814,0.7766,0.7787,0.7784,0.7782,0.778,0.7697,0.7697,0,0,0,0,0,0,0.8057,0.8043,0.7963,0.7958,0.8003,0.7951,0.7942,0.7924,0.7874,0.7866,0.7897,0.7896,0.7825,0.7818,0.7811,0.7781,0.7783,0.778,0.7778,0.7697,0.7697,0.7697,0,0,0,0,0,0,0.8059,0.805,0.7966,0.8,0.7988,0.7949,0.793,0.7923,0.7908,0.7866,0.7858,0.7889,0.7825,0.7816,0.7784,0.7778,0.7779,0.7776,0.7697,0.7697,0.7697,0.7721,0,0,0,0,0,0,0.8062,0.8051,0.8043,0.8,0.7987,0.7941,0.7929,0.7921,0.7903,0.79,0.7856,0.7849,0.7824,0.7789,0.778,0.7773,0.7773,0.7698,0.7697,0.7697,0.772,0.7721,0.7722,0,0,0,0,0,0.8066,0.8052,0.8042,0.8033,0.7976,0.794,0.7933,0.7905,0.7902,0.7893,0.7866,0.785,0.778,0.7786,0.7776,0.7768,0.7698,0.7697,0.7697,0.772,0.7721,0.7722,0,0,0,0,0,0,0.8093,0.8046,0.8035,0.8006,0.7978,0.7935,0.7922,0.7908,0.7878,0.7877,0.7844,0.7834,0.7805,0.7783,0.779,0.7743,0.7737,0.7735,0.7758,0.7759,0.776,0.7766,0.777,0,0,0,0,0,0.8097,0.8073,0.8032,0.801,0.7997,0.7962,0.7946,0.7927,0.7896,0.7883,0.7854,0.7823,0.7794,0.7775,0.7746,0.7717,0.7707,0.7707,0.7708,0.7709,0.7707,0.7689,0.7689,0.7695,0.7695,0.7695,0,0,0.8102,0.8073,0.8059,0.8015,0.7991,0.7966,0.7952,0.7926,0.7907,0.7879,0.7847,0.7825,0.7788,0.7757,0.7742,0.7738,0.7703,0.7708,0.7709,0.7706,0.7689,0.7688,0.7688,0.7694,0.7694,0.7695,0,0,0.8099,0.8075,0.8054,0.8031,0.7995,0.7972,0.7967,0.7926,0.791,0.7878,0.7856,0.7832,0.7783,0.7758,0.7738,0.7726,0.771,0.7717,0.7722,0.7705,0.7705,0.7704,0.7699,0.7698,0.7716,0.7716,0.7716,0,0.811,0.8072,0.8045,0.8021,0.8002,0.7976,0.7955,0.7932,0.7888,0.7875,0.7871,0.7809,0.7782,0.7745,0.7743,0.7728,0.772,0.7722,0.7707,0.7706,0.7705,0.77,0.7698,0.7717,0.7717,0.7717,0.7716,0,0.8087,0.8062,0.8049,0.8009,0.7988,0.7965,0.7933,0.7915,0.7899,0.7876,0.7843,0.7811,0.7774,0.7764,0.7747,0.7724,0.7723,0.7714,0.7707,0.7706,0.7701,0.7699,0.7718,0.7718,0.7718,0.7717,0,0,0.8099,0.8044,0.804,0.8021,0.798,0.7959,0.7934,0.79,0.7885,0.7855,0.7833,0.7792,0.7784,0.7762,0.7742,0.7727,0.7719,0.7719,0.7718,0.772,0.7691,0.7698,0.7696,0.7708,0.7708,0.7708,0.7694,0,0.809,0.8047,0.8021,0.7988,0.7963,0.7939,0.7917,0.7889,0.7867,0.7842,0.7817,0.7789,0.7779,0.7766,0.7751,0.7723,0.7712,0.7724,0.7686,0.7685,0.7696,0.7693,0.7701,0.7689,0.7692,0.7691,0.7691,0,0.8074,0.8046,0.801,0.7971,0.796,0.7942,0.7908,0.7885,0.7852,0.7837,0.7813,0.7793,0.7765,0.7761,0.7722,0.773,0.7713,0.7697,0.7696,0.7691,0.7688,0.7688,0.7685,0.7683,0.7687,0.7688,0.7688,0,0.8085,0.8039,0.8011,0.7996,0.795,0.7938,0.7918,0.7885,0.7866,0.7836,0.7823,0.779,0.7772,0.7746,0.7718,0.7718,0.7681,0.7675,0.7666,0.7667,0.7659,0.766,0.7653,0.7649,0.7649,0.7649,0.7649,0,0.8078,0.8057,0.8016,0.7999,0.7975,0.7945,0.7921,0.7899,0.787,0.7848,0.7824,0.7803,0.7767,0.7741,0.7718,0.7689,0.7681,0.7667,0.7661,0.7669,0.7671,0.7657,0.7657,0.7649,0.7649,0.7649,0.7649,0,0.8087,0.8059,0.8027,0.7987,0.7976,0.7959,0.7924,0.7906,0.7883,0.7855,0.7846,0.781,0.7778,0.7747,0.7705,0.7689,0.766,0.7652,0.7672,0.7668,0.7661,0.7662,0.7645,0.7641,0.7641,0.7641,0.7641,0,0.8083,0.8067,0.8025,0.8009,0.799,0.7964,0.7945,0.7915,0.7895,0.7857,0.7843,0.781,0.7782,0.7733,0.7702,0.7669,0.766,0.7656,0.7654,0.7663,0.7659,0.766,0.7658,0.7657,0.7657,0.7657,0.7657,0,0.8081,0.8068,0.8042,0.801,0.7988,0.7962,0.7935,0.7923,0.7887,0.7867,0.7835,0.7813,0.777,0.7738,0.7701,0.7679,0.7662,0.7658,0.7654,0.7662,0.7673,0.7667,0.7673,0.7658,0.7658,0.7658,0.7658,0.7658,0.8083,0.8067,0.8035,0.8006,0.7983,0.7958,0.7939,0.7915,0.7888,0.7851,0.7835,0.7803,0.7769,0.7719,0.7697,0.7671,0.7666,0.7661,0.7659,0.7659,0.766,0.7678,0.7664,0.7664,0.7664,0.7664,0.7664,0,0.8078,0.8057,0.8031,0.7994,0.7972,0.7959,0.7928,0.7909,0.7882,0.7853,0.7826,0.7789,0.7757,0.7724,0.769,0.7675,0.7666,0.7667,0.7667,0.7662,0.7666,0.7673,0.7674,0.7674,0.7674,0.7674,0.7675,0.7675,0.8073,0.8046,0.8029,0.7989,0.7967,0.7936,0.792,0.7896,0.7873,0.7833,0.7807,0.7786,0.7755,0.7718,0.7688,0.7679,0.7667,0.767,0.7659,0.7663,0.7662,0.7661,0.7667,0.7668,0.7668,0.7657,0.7657,0.7657]}]]